Regional Weather Roundup
Issued by NWS

Home | Current Version | Previous Version | Text Only | Print | Product List | Glossary On
Versions: 1 2 3 4 5 6 7 8 9 10 11 12 13 14 15 16 17 18 19 20 21 22 23 24 25 26 27 28
000
ASUS44 KBMX 251210
RWRAL

ALABAMA REGIONAL WEATHER ROUNDUP
NATIONAL WEATHER SERVICE BIRMINGHAM AL
700 AM CDT SAT OCT 25 2014

NOTE: "FAIR" INDICATES FEW OR NO CLOUDS BELOW 12,000 FEET
WITH NO SIGNIFICANT WEATHER AND/OR OBSTRUCTIONS TO VISIBILITY.

THE REMARK "TC" DENOTES TEMPERATURE IN DEGREES CELSIUS.

ALZ001>011-014-016>018-020-251300-
NORTH ALABAMA

CITY           SKY/WX    TMP DP  RH WIND       PRES   REMARKS
MUSCLE SHOALS  CLEAR     44  41  89 CALM      30.13S
6HR MIN TEMP:  44; 6HR MAX TEMP:  49;

HUNTSVILLE     CLEAR     44  41  89 CALM      30.11S
6HR MIN TEMP:  44; 6HR MAX TEMP:  50;

DECATUR        CLEAR     43  41  93 CALM      30.12S
6HR MIN TEMP:  41; 6HR MAX TEMP:  48;

HALEYVILLE     FAIR      42  42 100 CALM      30.14S
6HR MIN TEMP:  41; 6HR MAX TEMP:  45;

GADSDEN        CLEAR     39  37  93 CALM      30.10F
6HR MIN TEMP:  39; 6HR MAX TEMP:  45;

$$

ALZ012-013-022-023-030>036-040>044-251300-
WEST CENTRAL ALABAMA

CITY           SKY/WX    TMP DP  RH WIND       PRES   REMARKS
TUSCALOOSA     CLEAR     46  43  89 CALM      30.12R
6HR MIN TEMP:  45; 6HR MAX TEMP:  50;

$$

ALZ015-024>027-033>036-040>044-251300-
CENTRAL ALABAMA

CITY           SKY/WX    TMP DP  RH WIND       PRES   REMARKS
BIRMINGHAM     CLEAR     44  42  93 CALM      30.12S
6HR MIN TEMP:  44; 6HR MAX TEMP:  49;

MONTGOMERY     CLEAR     46  42  86 CALM      30.10R
6HR MIN TEMP:  43; 6HR MAX TEMP:  48;

SHELBY CO ARPT CLEAR     47  45  93 CALM      30.10R
6HR MIN TEMP:  47; 6HR MAX TEMP:  51;

MAXWELL AFB    CLEAR     45  45 100 CALM      30.09R
6HR MIN TEMP:  44; 6HR MAX TEMP:  47;

GREENVILLE     FAIR      45  41  86 N3        30.09
6HR MIN TEMP:  45; 6HR MAX TEMP:  55;

$$

ALZ019-021-028-029-037-038-045>048-251300-
EAST CENTRAL ALABAMA

CITY           SKY/WX    TMP DP  RH WIND       PRES   REMARKS
ANNISTON       CLEAR     40  37  89 CALM      30.11R
6HR MIN TEMP:  39; 6HR MAX TEMP:  45;

ALEXANDER CITY CLEAR     41  39  93 CALM      30.08S
6HR MIN TEMP:  40; 6HR MAX TEMP:  49;

AUBURN         CLEAR     46  39  76 N6        30.09S
6HR MIN TEMP:  45; 6HR MAX TEMP:  52;

$$

ALZ051>064-251300-
SOUTHWEST ALABAMA

CITY           SKY/WX    TMP DP  RH WIND       PRES   REMARKS
MOBILE         CLEAR     44  43  96 CALM      30.11R
6HR MIN TEMP:  44; 6HR MAX TEMP:  53;

BROOKLEY FIELD CLEAR     50  45  83 NW5       30.12R
6HR MIN TEMP:  48; 6HR MAX TEMP:  56;

EVERGREEN      CLEAR     46  43  89 NW3       30.10R
6HR MIN TEMP:  45; 6HR MAX TEMP:  51;

$$

ALZ049-050-065>069-251300-
SOUTHEAST ALABAMA

CITY           SKY/WX    TMP DP  RH WIND       PRES   REMARKS
DOTHAN         CLEAR     47  43  86 N6        30.09R
6HR MIN TEMP:  46; 6HR MAX TEMP:  51;

OZARK          CLEAR     48  42  81 NW5       30.06R
6HR MIN TEMP:  47; 6HR MAX TEMP:  55;

TROY           CLEAR     39  37  92 CALM      30.09R
6HR MIN TEMP:  38; 6HR MAX TEMP:  45;

EUFAULA        FAIR      41  40  96 CALM      30.06R
6HR MIN TEMP:  41; 6HR MAX TEMP:  47;

$$



USA.gov is the U.S. government's official web portal to all federal, state and local government web resources and services.